CST,Max TemperatureF,Mean TemperatureF,Min TemperatureF,Max Dew PointF,MeanDew PointF,Min DewpointF,Max Humidity, Mean Humidity, Min Humidity, Max Sea Level PressureIn, Mean Sea Level PressureIn, Min Sea Level PressureIn, Max VisibilityMiles, Mean VisibilityMiles, Min VisibilityMiles, Max Wind SpeedMPH, Mean Wind SpeedMPH, Max Gust SpeedMPH,PrecipitationIn, CloudCover, Events, WindDirDegrees
2013-1-1,33,26,19,34,24,16,100,95,80,30.27,30.19,30.08,10,8,2,13,7,16,0.01,6,,344
2013-1-2,28,20,12,19,15,9,100,80,47,30.29,30.25,30.21,10,10,7,7,2,,0.10,0,,153
2013-1-3,37,30,23,30,25,19,93,83,65,30.41,30.33,30.23,10,10,10,8,4,,0.00,0,,253
2013-1-4,39,32,24,27,26,25,100,79,56,30.46,30.39,30.33,10,10,10,9,3,,0.00,1,,218
2013-1-5,41,32,23,37,29,21,100,80,61,30.34,30.26,30.15,10,10,10,10,5,,0.00,4,,181
2013-1-6,39,32,24,37,30,23,100,86,65,30.40,30.25,30.10,10,10,7,18,8,64,0.00,2,,281
2013-1-7,42,32,21,30,27,21,100,83,53,30.43,30.33,30.18,10,9,5,13,4,,0.00,0,,158
2013-1-8,51,38,26,41,32,21,100,75,30,30.24,30.18,30.14,10,9,4,12,6,16,0.00,2,,166
2013-1-9,55,48,41,52,45,39,100,90,63,30.47,30.38,30.20,10,10,4,9,4,,0.03,2,Rain,31
2013-1-10,62,52,42,63,48,37,100,95,76,30.46,30.11,29.81,10,5,0,18,10,28,0.24,8,Fog-Rain,108
2013-1-11,60,56,51,61,54,52,100,94,77,29.93,29.87,29.81,10,10,10,18,10,26,0.00,1,,190
2013-1-12,60,46,33,61,50,34,100,99,88,29.97,29.88,29.79,10,9,3,17,9,33,1.56,4,Rain-Thunderstorm,241
2013-1-13,33,27,21,34,26,21,100,96,86,30.36,30.13,29.89,10,9,2,16,11,25,0.08,5,Snow,321
2013-1-14,26,22,19,21,20,18,100,92,74,30.49,30.42,30.37,10,10,10,10,4,,0.00,1,,358
2013-1-15,30,24,19,28,23,19,100,92,74,30.40,30.28,30.13,10,10,10,10,5,,0.00,3,,5
2013-1-16,42,32,21,28,21,0,100,72,19,30.16,30.12,30.05,10,10,10,8,4,,0.00,2,,251
2013-1-17,41,34,26,37,29,19,100,81,48,30.51,30.31,30.15,10,10,10,15,5,22,0.00,3,,332
2013-1-18,46,35,24,36,28,21,100,78,37,30.51,30.38,30.17,10,10,10,20,6,24,0.00,0,,182
2013-1-19,60,50,39,39,32,16,87,60,17,30.20,30.08,29.95,10,10,10,18,13,24,0.00,0,,200
2013-1-20,46,36,26,34,19,1,87,57,22,30.34,30.27,30.13,10,10,10,15,7,20,0.00,1,,347
2013-1-21,28,22,15,18,-1,-40,86,43,5,30.39,30.33,30.27,10,10,10,16,9,25,0.00,3,,316
2013-1-22,21,18,14,18,0,-24,100,51,14,30.48,30.41,30.38,10,10,10,7,4,,0.00,5,,17
2013-1-23,42,28,15,25,16,9,100,65,25,30.38,30.26,30.15,10,10,10,12,4,17,0.00,0,,171
2013-1-24,30,24,17,18,5,-8,86,48,24,30.60,30.44,30.25,10,10,10,16,12,24,0.00,2,,60
2013-1-25,42,35,28,23,13,-4,60,43,25,30.24,30.17,30.12,10,10,10,9,5,,0.00,4,,258
2013-1-26,37,32,26,27,17,1,93,59,22,30.40,30.33,30.23,10,10,10,8,4,,0.00,0,,46
2013-1-27,51,38,26,52,36,21,100,95,74,30.32,30.16,30.01,10,7,2,16,9,25,0.05,6,Rain,141
2013-1-28,62,56,51,63,59,52,100,100,100,30.02,29.98,29.94,10,10,7,16,12,24,0.00,7,,176
2013-1-29,68,60,53,64,62,54,100,98,83,29.92,29.69,29.42,10,10,2,32,15,43,0.98,8,Rain-Thunderstorm,180
2013-1-30,53,40,28,54,39,18,100,89,64,29.93,29.58,29.41,10,10,7,25,13,39,0.04,8,Rain,243
2013-1-31,37,26,14,30,18,0,93,68,49,30.37,30.08,29.93,10,10,2,23,13,33,0.00,6,Snow,274